Home   Weather   Québec   Past weeks

Flag for Canada Past Weather in Québec, Quebec, Canada — Yesterday and Last 2 Weeks

Now
36 °F

Mostly cloudy.


Feels Like: 29 °F
Forecast: 26 / 38 °F
Wind: 8 mph from Southwest

Location: Quebec Weather Station

Current Time: Feb 19, 2017 at 6:45:48 am

Latest Report: Feb 19, 2017 at 6:00 am


Visibility: 15 mi

Pressure: 29.51 "Hg

Humidity: 87%

Dew Point: 32 °F

Location of QuébecLocation

Past Weather in Québec — Graph

°F

Québec Temperature Yesterday

Maximum temperature yesterday: 34 °F (at 11:00 pm)
Minimum temperature yesterday: 16 °F (at 12:00 am)
Average temperature yesterday: 24 °F

High & Low Weather Summary for the Past Weeks

 TemperatureHumidityPressure
High36 °F (Feb 19, 12:05 am)93% (Feb 5, 12:35 pm)30.30 "Hg (Feb 5, 12:35 pm)
Low-8 °F (Feb 10, 3:00 am)36% (Feb 10, 2:00 pm)29.34 "Hg (Feb 8, 6:43 am)
Average14 °F72%29.83 "Hg
* Reported Feb 4 5:00 am — Feb 19 5:00 am, Québec, Weather by CustomWeather, © 2017

Note: Actual official high and low records may vary slightly from our data, if they occured in-between our weather recording intervals... More about our weather records

Advertising

Québec Weather History for the Previous 24 Hours

Scroll right to see more
 ConditionsComfort  
Time TempWeatherWind HumidityBarometerVisibility
5:00 am
Sun, Feb 19
36 °FMostly cloudy.10 mph87%29.47 "Hg15 mi
4:00 am36 °FOvercast.10 mph81%29.46 "Hg15 mi
3:26 am36 °FMostly cloudy.9 mph81%29.45 "Hg15 mi
3:00 am36 °FOvercast.9 mph81%29.44 "Hg15 mi
2:00 am36 °FDrizzle. Overcast.9 mph81%29.41 "Hg15 mi
1:00 am34 °FDrizzle. Mostly cloudy.9 mph81%29.39 "Hg15 mi
12:05 am36 °FDrizzle. Overcast.10 mph75%29.38 "Hg15 mi
11:00 pm
Sat, Feb 18
34 °FOvercast.6 mph70%29.37 "Hg15 mi
10:00 pm32 °FOvercast.6 mph69%29.36 "Hg15 mi
8:00 pm30 °FOvercast.2 mph64%29.37 "Hg15 mi
7:00 pm32 °FPassing clouds.3 mph55%29.35 "Hg15 mi
6:00 pm32 °FOvercast.5 mph60%29.34 "Hg15 mi
5:00 pm32 °FOvercast.3 mph60%29.35 "Hg30 mi
4:00 pm32 °FOvercast.6 mph55%29.36 "Hg30 mi
3:00 pm32 °FPassing clouds.6 mph60%29.41 "Hg25 mi
2:00 pm30 °FBroken clouds.7 mph59%29.46 "Hg25 mi
1:00 pm28 °FPartly sunny.5 mph59%29.52 "Hg20 mi
12:00 pm27 °FPartly sunny.5 mph64%29.55 "Hg20 mi
11:00 am25 °FBroken clouds.2 mph69%29.62 "Hg20 mi
10:00 am23 °FBroken clouds.2 mph74%29.66 "Hg15 mi
9:00 am21 °FMostly cloudy.3 mph74%29.68 "Hg20 mi
8:00 am19 °FOvercast.3 mph79%29.69 "Hg15 mi
7:00 am18 °FOvercast.2 mph86%29.71 "Hg10 mi
6:00 am18 °FOvercast.6 mph86%29.72 "Hg15 mi
Weather by CustomWeather, © 2017

See weather overviewHow to use our weather pages